Regional Weather Roundup
Issued by NWS Sterling, VA

Home | Current Version | Previous Version | Text Only | Print | Product List | Glossary On
Versions: 1 2 3 4 5 6 7 8 9 10 11 12 13 14 15 16 17 18 19 20 21 22 23 24 25 26 27 28 29 30 31 32 33 34 35 36 37 38 39 40 41 42 43 44 45 46 47 48 49 50
729
ASUS41 KLWX 221311
RWRLWX

REGIONAL WEATHER ROUNDUP
NATIONAL WEATHER SERVICE BALTIMORE MD/WASHINGTON DC
900 AM EDT SUN APR 22 2018

Note: "FAIR" indicates few or no clouds below 12,000 feet
with no significant weather and/or obstructions to visibility.
 TC=TEMPERATURE CELSIUS

 * =Non NWS site. Station does not report precipitation (e.g. rain,
    snow, etc.), thunder, or fog.

DCZ001-MDZ009-015-VAZ040>042-051-053>054-221400-
WASHINGTON METRO

CITY           SKY/WX    TMP DP  RH WIND       PRES   REMARKS
WASHINGTON NAT PTSUNNY   54  41  61 CALM      30.42S
DULLES         PTSUNNY   52  42  69 E5        30.40S
ANDREWS AFB    FAIR      51  40  66 E3        30.41R
FT BELVOIR     PTSUNNY   52  41  66 CALM      30.41S
QUANTICO       FAIR      52  45  77 S8        30.42R
COLLEGE PARK*  FAIR      52  40  62 E3        30.42R
LEESBURG*      FAIR      52  43  71 CALM      30.41S
MANASSAS*      FAIR      52  42  69 CALM      30.41R
GAITHERSBURG*  FAIR      53  38  56 E6        30.41S

$$

MDZ006>007-011-014-221400-
BALTIMORE METRO

CITY           SKY/WX    TMP DP  RH WIND       PRES   REMARKS
BWI AIRPORT    PTSUNNY   54  41  61 E6        30.42R
MD SCIENCE CTR   N/A     57  37  47 MISG      30.43S
MARTIN STATE   MOSUNNY   55  39  54 NE8       30.45S
ANNAPOLIS      FAIR      55  44  66 S5        30.42S
FORT MEADE*    FAIR      52  41  66 SE3       30.45R

$$

MDZ012-015-019>023-221400-
MARYLAND EASTERN SHORE

CITY           SKY/WX    TMP DP  RH WIND       PRES   REMARKS
OCEAN CITY     FAIR      53  46  77 N5        30.43F
SALISBURY      FAIR      52  45  77 NE7       30.42F
BAY BRIDGE AP* FAIR      54  41  62 S3        30.43R
CAMBRIDGE*     SUNNY     52  43  71 CALM      30.43S
EASTON*        MOSUNNY   54  41  62 E6        30.46S

$$

MDZ017>025-221400-
SOUTHERN MARYLAND

CITY           SKY/WX    TMP DP  RH WIND       PRES   REMARKS
PATUXENT RIVER PTSUNNY   57  41  55 SW3       30.42R
ST INIGOES     FAIR      54  37  52 SW5       30.41R
LEONARDTOWN*   FAIR      54  39  58 CALM      30.43R

$$

MDZ003>005-221400-
NORTH CENTRAL MARYLAND

CITY           SKY/WX    TMP DP  RH WIND       PRES   REMARKS
FREDERICK*     PTSUNNY   52  36  54 NE6       30.44R
HAGERSTOWN APT FAIR      54  30  40 E12       30.39S
WESTMINSTER*   FAIR      54  27  35 E6        30.41S VSB 1

$$

MDZ501>502-221400-
WESTERN MARYLAND

CITY           SKY/WX    TMP DP  RH WIND       PRES   REMARKS
OAKLAND*       FAIR      43  25  49 SE15      30.31S
CUMBERLAND*    FAIR      55  28  35 N5        30.41F

$$

VAZ025>031-221400-
SHENANDOAH VALLEY

CITY           SKY/WX    TMP DP  RH WIND       PRES   REMARKS
WINCHESTER*    FAIR      50  32  50 NE3       30.38S
FRONT ROYAL*   FAIR      50  34  53 N5        30.36S
LURAY*         FAIR      48  37  66 CALM      30.36S
NEW MARKET*    FAIR      46  36  69 CALM      30.36R
STAUNTON*      FAIR      47  36  63 CALM      30.37S
WAYNESBORO*    FAIR      51  34  52 CALM      30.35R

$$

WVZ021-048>050-054>055-221400-
EASTERN WEST VIRGINIA PANHANDLE

CITY           SKY/WX    TMP DP  RH WIND       PRES   REMARKS
MARTINSBURG    PTSUNNY   52  34  50 NE5       30.38S
PETERSBURG*    FAIR      44  35  69 CALM      30.37S

$$

VAZ036>039-050-221400-
CENTRAL FOOTHILLS

CITY           SKY/WX    TMP DP  RH WIND       PRES   REMARKS
CHARLOTTESVILL FAIR      53  39  59 CALM      30.38R
CULPEPER*      FAIR      51  40  68 CALM      30.40S
ORANGE*        FAIR      50  43  76 CALM      30.39R
GORDONSVILLE*  FAIR      51  44  76 CALM      30.38S
WARRENTON*     FAIR      52  39  61 CALM      30.39S

$$

VAZ055>057-221400-
NORTH AND CENTRAL PIEDMONT

CITY           SKY/WX    TMP DP  RH WIND       PRES   REMARKS
FREDERICKSBRG* FAIR      53  44  70 S5        30.39F
STAFFORD*      FAIR      53  44  72 CALM      30.44S

$$

NCZ024-NYZ072-PAZ021-071-VAZ022-071-221400-
OTHER REGIONAL OBSERVATIONS

CITY           SKY/WX    TMP DP  RH WIND       PRES   REMARKS
NEW YORK CITY  FAIR      51  18  27 W6        30.44R
PHILADELPHIA   FAIR      53  24  32 E8        30.44S
PITTSBURGH     PTSUNNY   49  24  37 E7        30.34S
ROANOKE        FAIR      52  36  54 CALM      30.37S
RICHMOND       FAIR      53  42  66 S9        30.40S
RALEIGH        PTSUNNY   54  44  69 SE5       30.39R

$$

ANZ530>537-221400-
MARINE OBSERVATIONS

STATION/POSITION TIME  TEMP    WIND        PRES
                       AIR SEA DIR/SP/G
                 (UTC) (F)     (DEG/KT/KT) (MB)
THOMAS PT LIGHT  1300   51 50   90/  3/  4 1031.4R
BALT KEY BRIDGE  1242   53      70/  4/  5 1030.3S
COVE POINT       1242   50      60/  5/  6 1030.9R
LEWISETTA        1242   53 55  150/  1/  3 1029.9R
SOLOMONS ISLAND  1242   51 52   60/  2/  3 1029.8R
PINEY POINT      1242          150/  2/  3   N/A

$$





USA.gov is the U.S. government's official web portal to all federal, state and local government web resources and services.